Wetbulb
55.16 55.06 55.06 54.94 54.85 54.65 54.46 53.85 53.62 53.44 53.30 52.82 52.47 52.01 51.78 51.78 51.63 51.10 51.48 51.45 51.56 51.09 50.21 49.52 47.63 45.15 44.97 37.42 35.24 42.60 47.04 45.29 42.83 42.54 40.06 38.44 36.42 36.59 33.45 33.51 33.94 32.55 32.95 33.60 34.46 33.92 33.85
55.00 54.74 54.75 54.63 54.54 54.40 54.23 53.85 53.26 53.04 52.72 52.50 52.15 51.71 51.39 51.04 50.92 50.91 49.95 50.47 50.54 49.77 50.34 48.70 47.33 49.95 41.90 32.65 41.73 42.98 41.92 41.39 41.00 40.92 39.01 39.27 36.14 36.98 34.29 32.75 32.50 33.05 32.78 33.28 33.66 33.32 33.96
54.84 54.66 54.54 54.36 54.19 54.09 53.92 53.52 53.02 52.80 52.50 52.04 51.75 51.36 50.96 50.08 50.36 50.21 49.30 49.65 49.47 48.96 49.65 47.05 45.03 43.48 38.48 34.22 42.55 42.97 41.94 40.63 41.18 40.62 37.71 38.83 38.99 37.20 35.63 32.59 33.95 32.84 30.32 33.92 33.79 33.26 32.19
54.39 54.32 54.35 54.14 53.89 53.79 53.58 53.24 52.84 52.64 52.25 51.87 51.50 51.12 50.58 49.92 49.81 49.25 48.52 48.48 49.11 49.23 47.12 45.24 44.63 43.55 34.97 41.25 43.93 41.45 41.66 40.20 41.43 41.13 39.36 39.66 40.43 37.03 34.56 34.95 33.05 30.94 30.80 27.99 32.82 32.16 32.05
53.68 53.71 53.68 53.74 53.52 53.52 53.45 53.14 52.74 52.35 51.95 51.57 51.09 50.60 49.50 49.80 49.20 48.50 47.82 48.25 47.44 46.95 45.34 45.12 43.40 41.86 34.07 42.72 38.91 41.01 40.78 37.08 39.03 39.76 40.45 40.04 38.85 35.03 36.05 32.29 30.76 30.94 23.58 25.53 27.60 33.01 30.50
52.86 52.96 53.08 53.35 52.94 53.01 53.06 52.90 52.65 51.97 51.71 51.07 50.39 49.98 49.04 49.62 49.72 48.92 47.64 46.77 46.91 45.87 44.29 42.29 42.02 39.39 37.36 34.13 38.65 39.88 40.75 39.18 35.94 37.21 36.86 36.73 36.57 33.33 31.87 28.64 21.58 21.96 21.51 23.98 24.33 29.63 29.82
52.16 52.42 52.52 52.74 52.47 52.50 52.63 52.59 52.35 51.77 51.30 50.66 49.99 49.07 47.83 48.41 48.17 47.31 46.34 45.04 42.57 42.29 39.73 35.17 34.80 34.48 35.29 38.56 39.79 37.96 38.98 37.56 38.10 35.71 30.27 33.00 30.10 24.76 26.17 27.42 26.21 24.66 23.29 22.54 27.18 30.67 26.72
51.84 51.70 51.90 52.05 51.87 52.04 52.10 52.16 52.09 51.65 51.09 50.40 49.77 48.46 47.63 46.03 46.56 45.66 46.13 41.40 39.07 41.03 33.03 36.82 36.07 36.32 36.61 37.70 33.29 35.85 38.75 33.56 33.57 28.81 32.16 30.58 25.08 27.39 28.61 27.88 25.87 25.19 22.69 23.37 26.32 28.49 26.26
51.80 50.89 51.05 51.39 51.40 51.42 51.62 51.79 51.68 51.50 50.99 50.16 49.38 47.93 46.95 45.27 43.42 46.48 43.19 39.91 43.36 42.28 37.78 33.48 35.28 34.61 34.27 36.33 31.20 32.00 34.26 32.55 28.74 28.63 27.08 26.16 25.49 28.17 27.06 26.59 23.50 23.99 22.59 21.20 20.06 24.77 27.46
51.79 50.33 50.11 50.53 50.69 50.75 51.05 51.28 51.11 51.11 50.60 49.96 48.69 46.92 46.41 46.91 43.82 43.03 40.50 42.53 44.76 44.23 37.86 32.72 33.21 34.34 35.69 34.84 30.20 36.23 35.88 31.05 30.47 25.77 26.77 26.29 28.52 26.12 26.06 24.98 23.99 18.32 26.02 22.79 21.39 19.48 18.79
51.46 50.08 49.31 49.63 49.94 50.09 50.47 50.90 50.81 50.76 50.34 49.82 47.84 46.54 45.25 47.72 42.94 41.68 40.98 44.13 44.41 42.88 38.10 33.53 32.56 37.72 35.45 31.73 30.96 32.72 36.62 32.71 25.90 25.58 27.16 24.95 24.34 23.35 23.51 22.42 24.74 20.48 24.80 23.11 23.13 18.32 17.31
51.80 50.87 49.01 48.75 49.15 49.36 49.94 50.41 50.48 50.42 50.33 49.43 46.70 46.21 43.64 43.99 44.93 41.01 43.35 43.93 42.64 40.17 35.52 31.48 32.00 30.62 31.67 31.83 30.28 32.83 32.20 34.02 30.46 26.19 27.99 25.52 27.99 25.46 23.89 25.38 26.58 26.19 23.20 25.54 21.87 20.34 14.26
52.11 51.19 49.21 48.36 48.44 48.83 49.34 49.88 50.18 50.17 50.09 48.68 45.77 44.83 44.69 43.37 40.78 43.65 44.24 41.64 41.73 38.48 35.07 31.30 28.40 30.45 29.17 27.77 28.21 28.64 27.59 22.80 21.40 20.08 23.94 26.43 24.38 26.24 26.30 22.57 26.07 23.27 19.68 15.49 14.09 15.13 14.93
51.91 51.52 50.12 48.36 47.91 48.29 48.75 49.31 49.82 49.90 49.62 46.51 44.92 42.67 41.86 42.13 44.30 43.94 42.70 39.69 37.39 30.97 30.96 31.15 29.65 29.81 26.84 26.42 27.00 27.85 28.01 25.01 24.63 22.91 20.71 18.45 20.80 21.98 25.41 20.71 17.09 19.73 18.19 10.52 3.01 9.13 11.38
52.21 51.87 51.02 49.05 47.90 47.87 48.10 48.70 49.34 49.61 49.43 45.34 44.39 45.09 43.80 42.15 42.91 43.27 39.80 40.85 32.91 29.62 27.98 27.45 30.58 28.67 29.52 27.86 26.58 27.70 23.96 22.06 21.32 21.91 16.78 17.27 20.87 26.26 24.10 24.40 22.29 18.37 15.27 19.02 11.21 15.12 10.35
52.53 51.80 51.64 50.16 48.66 47.62 47.59 47.97 48.78 49.39 49.13 44.19 45.02 43.25 42.22 41.75 42.90 41.25 43.14 31.33 30.23 29.44 29.30 28.79 26.30 27.25 25.49 26.88 25.72 25.70 24.68 21.73 21.75 21.79 22.35 19.86 13.01 22.79 22.95 24.25 23.01 20.43 21.31 11.52 13.81 4.69 2.91
53.41 52.10 51.93 51.41 49.60 47.79 46.99 47.47 48.28 49.05 47.90 44.33 44.45 41.95 41.32 42.47 41.46 43.19 37.96 30.61 28.74 30.13 29.70 26.67 26.37 24.81 24.28 22.65 23.95 23.18 22.38 23.25 22.39 23.58 23.12 19.42 15.46 20.70 24.74 17.25 14.61 19.14 16.70 16.20 14.78 12.45 6.12
53.93 52.36 51.82 51.91 50.48 48.54 46.65 46.98 47.62 48.68 46.46 42.13 43.42 43.23 42.42 42.03 42.16 37.97 34.37 30.30 29.75 28.79 30.14 28.12 27.35 23.35 22.21 23.90 21.68 22.91 22.09 22.49 25.13 23.93 19.25 20.97 17.69 13.65 18.50 18.46 18.03 17.94 16.54 14.73 9.14 8.07 11.71
54.14 52.96 52.27 51.64 51.56 49.19 46.88 46.34 46.80 47.88 45.53 44.89 43.18 42.35 44.33 42.43 42.55 35.36 29.61 28.70 29.77 28.12 28.29 27.11 26.00 26.26 25.24 23.29 19.14 23.37 23.71 26.72 26.22 23.97 21.03 21.82 18.80 14.37 17.05 16.75 18.78 15.94 17.91 15.48 14.69 13.54 7.46
54.42 53.88 53.10 51.75 51.72 49.82 47.69 45.77 46.21 47.04 44.49 44.02 45.45 45.65 42.65 39.73 36.62 36.82 30.64 29.98 27.92 29.02 28.24 28.04 26.70 26.72 24.81 24.48 25.61 21.92 23.28 25.42 25.70 24.77 25.82 24.87 19.70 15.72 14.31 16.43 20.31 14.83 16.99 16.92 13.84 7.97 9.80
54.57 54.05 53.78 52.95 51.72 50.62 48.69 45.91 45.31 46.31 43.88 43.86 43.02 37.89 34.61 40.62 35.57 33.34 32.99 30.42 28.06 26.86 27.98 28.29 26.34 26.01 23.89 20.14 24.49 22.29 24.34 25.14 24.86 24.21 24.61 21.35 14.28 18.71 19.69 19.77 18.82 16.33 14.51 13.98 9.84 10.53 7.31
54.69 54.35 53.93 53.34 52.21 50.99 49.61 46.77 44.67 45.41 42.94 43.84 43.77 40.86 36.59 33.26 31.50 32.89 30.28 29.30 29.14 27.54 26.87 25.74 24.50 26.74 27.11 21.78 24.42 20.98 23.71 23.82 22.20 23.25 22.05 21.84 15.54 17.37 12.08 18.20 14.44 12.49 14.29 13.50 10.69 10.97 11.24
54.81 54.33 53.84 53.35 52.33 51.78 50.35 47.63 45.10 44.51 41.62 44.22 39.50 38.31 39.27 32.07 32.61 32.93 35.97 32.21 29.61 29.53 29.43 29.13 28.06 25.97 25.25 26.78 28.80 28.70 28.67 27.68 26.12 22.12 20.31 18.62 16.96 14.02 12.89 19.16 16.80 10.66 11.61 11.56 13.16 14.92 12.74
54.79 54.31 53.95 53.42 52.54 52.04 50.89 48.29 45.64 44.86 44.13 43.96 41.97 42.38 35.79 38.89 33.92 34.27 30.73 29.94 28.46 28.95 27.77 28.20 28.27 25.72 27.72 30.56 30.23 27.31 25.60 24.49 24.66 23.93 24.33 18.84 17.50 16.63 12.05 16.47 11.08 13.57 16.93 16.35 13.00 13.48 14.98
54.89 54.37 54.04 53.54 52.74 52.15 51.10 48.85 46.24 44.79 42.50 42.95 41.58 42.34 37.00 40.33 36.51 31.86 30.52 29.57 28.76 28.66 27.23 27.30 28.98 30.32 30.60 27.67 23.45 22.75 21.57 20.23 20.86 22.03 21.57 22.41 18.38 13.87 10.75 11.83 18.95 16.77 15.72 15.30 11.83 10.19 16.35
54.97 54.47 54.02 53.50 52.70 51.98 51.08 49.25 46.66 45.41 43.19 42.98 42.11 42.07 42.69 35.28 38.11 34.63 31.21 29.96 31.20 29.09 26.86 26.69 28.66 30.58 28.87 26.27 23.84 20.51 23.98 19.07 19.95 18.24 20.23 19.87 20.48 14.26 14.52 8.34 10.97 16.44 20.36 22.35 15.50 9.29 19.84
55.10 54.48 53.92 53.35 52.69 51.92 51.02 49.51 47.10 46.19 43.85 42.89 40.22 39.69 41.66 35.88 34.50 33.48 33.19 30.87 32.01 29.96 30.52 25.53 25.29 24.76 27.19 25.53 23.25 22.47 23.43 19.46 18.38 17.21 15.28 14.16 13.71 11.31 14.62 12.93 18.21 20.70 21.31 22.39 11.75 15.08 19.26
54.86 54.35 53.76 53.15 52.61 51.94 51.03 49.33 47.29 46.59 44.57 42.76 38.90 39.16 40.53 37.68 32.40 31.44 31.33 29.15 27.67 30.56 31.18 25.77 25.68 24.12 24.31 22.18 23.06 24.35 20.23 20.47 15.01 21.92 18.28 16.22 15.49 16.31 15.43 10.70 12.92 21.90 22.84 15.05 20.27 21.44 20.25
54.72 54.28 53.59 52.88 52.37 51.83 50.88 49.17 47.15 45.65 44.02 42.63 38.08 37.92 40.15 38.54 32.50 32.80 31.70 31.33 30.77 30.27 31.09 26.56 28.63 26.01 29.15 25.83 23.59 24.17 20.57 17.42 16.87 19.68 17.65 13.99 18.93 19.37 19.43 22.90 23.13 25.81 23.24 25.05 23.75 20.54 20.64
MSLP
1025.71 1025.74 1025.70 1025.62 1025.53 1025.45 1025.35 1025.23 1025.07 1024.85 1024.64 1024.49 1024.39 1024.29 1024.16 1024.01 1023.82 1023.68 1023.57 1023.40 1023.20 1023.05 1022.84 1022.65 1022.37 1021.99 1021.42 1021.67 1023.98 1024.09 1023.67 1023.02 1022.33 1021.39 1020.52 1019.90 1019.48 1019.12 1019.12 1019.41 1019.55 1019.42 1019.70 1019.83 1019.94 1020.03 1019.87
1026.00 1026.00 1025.98 1025.91 1025.79 1025.72 1025.60 1025.47 1025.32 1025.10 1024.87 1024.71 1024.58 1024.47 1024.32 1024.17 1024.01 1023.83 1023.72 1023.60 1023.37 1023.17 1022.98 1022.87 1022.60 1021.94 1021.20 1023.02 1024.98 1024.36 1023.81 1023.37 1022.89 1021.92 1021.47 1020.91 1020.90 1020.56 1020.07 1020.19 1020.01 1020.24 1020.18 1019.80 1019.80 1020.02 1019.95
1026.25 1026.27 1026.23 1026.16 1026.09 1026.01 1025.89 1025.73 1025.56 1025.34 1025.11 1024.94 1024.77 1024.59 1024.44 1024.29 1024.10 1023.98 1023.87 1023.74 1023.55 1023.36 1023.20 1023.07 1022.92 1022.21 1022.74 1025.06 1024.67 1024.38 1023.88 1023.53 1023.26 1022.82 1022.25 1022.19 1021.85 1020.71 1020.89 1020.45 1020.83 1020.50 1019.95 1019.12 1019.09 1019.78 1020.07
1026.53 1026.56 1026.52 1026.45 1026.38 1026.28 1026.14 1026.00 1025.82 1025.58 1025.36 1025.17 1024.97 1024.74 1024.52 1024.37 1024.19 1024.12 1024.06 1023.91 1023.74 1023.56 1023.39 1023.28 1023.02 1022.13 1023.85 1025.31 1024.92 1024.61 1024.07 1023.54 1023.38 1023.21 1022.85 1022.61 1022.24 1021.69 1021.21 1021.24 1020.87 1020.09 1019.97 1019.07 1019.09 1019.88 1020.40
1026.86 1026.89 1026.86 1026.75 1026.62 1026.49 1026.36 1026.23 1026.08 1025.83 1025.62 1025.39 1025.13 1024.88 1024.66 1024.42 1024.29 1024.24 1024.19 1024.06 1023.90 1023.75 1023.49 1023.20 1022.77 1022.22 1024.17 1024.84 1024.76 1024.84 1024.68 1024.11 1023.44 1023.10 1022.96 1022.67 1022.33 1021.73 1020.84 1020.34 1020.19 1019.85 1020.23 1020.13 1019.74 1019.78 1020.14
1027.12 1027.20 1027.17 1027.05 1026.92 1026.78 1026.62 1026.47 1026.29 1026.06 1025.85 1025.59 1025.29 1025.00 1024.82 1024.63 1024.53 1024.45 1024.34 1024.16 1023.81 1023.73 1023.12 1023.04 1022.80 1023.17 1024.71 1025.48 1025.39 1025.13 1024.81 1024.45 1023.79 1023.25 1022.84 1022.20 1021.65 1021.30 1021.65 1021.61 1021.72 1021.81 1021.63 1021.14 1020.54 1020.00 1020.04
1027.33 1027.41 1027.40 1027.33 1027.19 1027.05 1026.90 1026.72 1026.44 1026.23 1026.05 1025.78 1025.48 1025.28 1025.12 1024.92 1024.82 1024.68 1024.25 1023.87 1024.03 1023.56 1024.09 1024.97 1025.54 1025.42 1025.93 1026.18 1025.85 1025.48 1025.09 1024.20 1023.10 1022.89 1022.75 1022.80 1022.49 1022.94 1023.49 1023.74 1024.18 1023.90 1022.83 1021.77 1020.79 1020.31 1020.46
1027.51 1027.58 1027.63 1027.58 1027.45 1027.30 1027.15 1026.93 1026.66 1026.41 1026.17 1025.94 1025.72 1025.49 1025.26 1025.16 1025.07 1024.83 1024.21 1024.14 1025.29 1025.44 1025.74 1026.17 1026.27 1026.27 1026.77 1026.88 1025.88 1025.94 1025.67 1024.63 1023.90 1023.58 1023.21 1023.29 1023.74 1024.77 1024.88 1024.79 1024.80 1024.03 1023.01 1021.82 1021.10 1020.89 1020.87
1027.65 1027.76 1027.81 1027.79 1027.67 1027.52 1027.28 1027.08 1026.84 1026.55 1026.35 1026.14 1025.87 1025.63 1025.34 1025.31 1025.15 1024.81 1024.81 1025.66 1026.02 1025.68 1024.97 1026.36 1026.62 1026.73 1027.19 1027.09 1026.93 1026.93 1026.98 1026.19 1025.58 1024.72 1024.85 1024.56 1025.66 1025.89 1025.55 1025.18 1025.06 1024.23 1023.30 1023.03 1022.71 1021.42 1020.27
1027.74 1027.86 1027.95 1027.97 1027.88 1027.70 1027.41 1027.22 1026.98 1026.69 1026.49 1026.33 1026.11 1025.91 1025.64 1025.39 1025.45 1025.39 1025.54 1026.27 1026.19 1025.92 1025.05 1026.28 1026.38 1027.22 1027.12 1026.94 1027.26 1027.55 1027.59 1027.60 1026.18 1025.99 1025.76 1025.70 1026.04 1026.31 1025.94 1025.82 1026.10 1024.57 1024.14 1023.89 1023.00 1022.38 1020.73
1027.78 1027.92 1028.03 1028.06 1028.00 1027.86 1027.60 1027.39 1027.13 1026.84 1026.58 1026.45 1026.34 1026.14 1025.93 1025.17 1025.25 1025.43 1026.37 1026.35 1026.21 1025.77 1025.54 1026.51 1026.78 1027.47 1027.38 1027.29 1027.78 1027.33 1027.81 1027.20 1027.17 1026.98 1026.88 1026.52 1026.77 1026.92 1026.66 1027.11 1026.74 1025.64 1024.71 1023.50 1022.64 1022.75 1022.29
1027.83 1027.96 1028.09 1028.11 1028.07 1027.97 1027.78 1027.55 1027.28 1026.97 1026.72 1026.57 1026.49 1026.31 1026.08 1025.66 1025.53 1026.62 1026.58 1026.38 1026.02 1025.43 1025.14 1026.14 1026.84 1027.07 1026.74 1027.27 1027.89 1027.71 1027.85 1027.90 1028.07 1027.51 1026.98 1027.30 1027.89 1028.11 1028.20 1027.60 1026.73 1026.46 1024.49 1022.16 1022.87 1022.44 1021.92
1027.84 1027.99 1028.11 1028.16 1028.16 1028.09 1027.91 1027.66 1027.37 1027.08 1026.87 1026.68 1026.66 1026.61 1026.06 1026.20 1026.33 1026.81 1026.62 1025.86 1025.06 1024.70 1025.20 1026.17 1026.89 1027.14 1027.38 1027.60 1027.81 1028.12 1028.49 1029.44 1029.76 1028.63 1027.53 1027.24 1027.74 1028.18 1028.68 1027.68 1027.02 1027.28 1025.46 1023.31 1023.00 1022.07 1020.56
1027.77 1027.93 1028.10 1028.20 1028.21 1028.18 1028.02 1027.79 1027.51 1027.20 1026.98 1026.85 1026.79 1026.75 1027.03 1026.92 1026.97 1026.93 1026.28 1025.02 1025.06 1026.25 1026.36 1027.28 1027.36 1027.32 1027.60 1028.35 1028.33 1028.48 1028.63 1029.72 1030.99 1031.11 1030.09 1029.29 1027.93 1028.69 1029.14 1029.60 1029.51 1028.61 1028.33 1028.07 1026.97 1024.18 1022.42
1027.59 1027.79 1027.98 1028.17 1028.23 1028.23 1028.12 1027.91 1027.61 1027.29 1027.04 1026.93 1026.85 1026.23 1026.36 1026.87 1027.11 1026.89 1025.81 1025.32 1027.09 1027.82 1028.65 1028.46 1027.61 1027.52 1027.55 1028.45 1029.00 1028.80 1029.97 1031.20 1032.42 1032.66 1032.62 1031.32 1029.25 1028.83 1029.69 1029.92 1030.21 1029.45 1029.42 1030.16 1028.97 1026.06 1023.77
1027.32 1027.56 1027.79 1028.03 1028.18 1028.23 1028.17 1027.99 1027.70 1027.38 1027.08 1026.96 1026.27 1026.08 1026.45 1027.04 1027.03 1026.51 1025.35 1027.22 1028.48 1029.34 1029.60 1029.58 1029.27 1029.28 1028.89 1028.86 1029.13 1029.52 1030.19 1032.08 1032.73 1033.57 1033.88 1033.21 1031.76 1029.43 1030.02 1030.56 1030.89 1030.64 1031.38 1030.71 1030.11 1027.83 1024.81
1027.01 1027.31 1027.58 1027.85 1028.03 1028.16 1028.19 1028.05 1027.77 1027.40 1027.15 1027.02 1026.37 1025.68 1026.69 1027.05 1026.89 1025.47 1026.54 1028.31 1029.40 1030.33 1030.70 1030.82 1030.62 1030.54 1030.61 1030.55 1030.42 1030.58 1031.12 1032.23 1033.07 1033.48 1034.02 1033.91 1033.67 1030.07 1029.59 1030.60 1031.50 1031.11 1031.26 1031.29 1031.39 1030.16 1028.27
1026.76 1027.06 1027.35 1027.64 1027.86 1028.07 1028.12 1028.05 1027.82 1027.45 1027.18 1027.01 1026.27 1025.81 1026.59 1026.93 1026.30 1026.55 1027.68 1029.07 1030.20 1030.63 1031.23 1031.51 1031.79 1031.85 1031.68 1031.40 1031.27 1031.02 1031.40 1032.18 1033.42 1033.79 1033.78 1034.25 1033.59 1031.49 1030.18 1031.51 1031.86 1032.07 1032.10 1032.30 1031.77 1030.85 1029.71
1026.41 1026.77 1027.02 1027.36 1027.61 1027.87 1028.05 1028.03 1027.84 1027.54 1027.36 1026.80 1026.09 1025.93 1026.27 1026.18 1026.23 1027.37 1029.06 1029.69 1030.39 1030.93 1031.31 1031.71 1031.85 1032.19 1032.47 1032.06 1032.05 1031.47 1031.69 1032.45 1033.29 1033.69 1033.81 1034.36 1033.29 1031.54 1030.45 1031.85 1031.98 1031.89 1031.93 1032.72 1032.81 1032.20 1030.25
1025.95 1026.36 1026.67 1027.01 1027.37 1027.72 1027.88 1027.92 1027.84 1027.64 1027.51 1027.25 1026.46 1026.20 1025.92 1026.14 1027.39 1027.79 1028.74 1029.41 1030.36 1031.21 1031.40 1031.81 1032.05 1032.41 1032.40 1031.93 1032.09 1031.86 1031.92 1032.44 1033.21 1033.57 1034.05 1034.26 1033.67 1032.86 1031.76 1030.65 1030.85 1031.19 1031.61 1032.37 1032.94 1032.16 1029.49
1025.53 1025.87 1026.24 1026.54 1026.99 1027.46 1027.68 1027.77 1027.76 1027.73 1027.61 1027.46 1026.94 1027.45 1028.12 1027.17 1027.49 1028.03 1028.54 1029.33 1029.81 1030.71 1031.60 1032.00 1031.97 1032.02 1032.22 1032.01 1031.45 1031.68 1031.81 1032.15 1032.87 1033.83 1034.05 1034.31 1033.49 1032.08 1030.97 1030.14 1030.43 1030.83 1031.23 1031.75 1032.27 1031.09 1030.50
1025.04 1025.35 1025.75 1026.18 1026.57 1027.06 1027.45 1027.64 1027.70 1027.76 1027.75 1027.24 1027.43 1027.83 1028.64 1028.40 1028.44 1028.32 1028.78 1029.04 1029.35 1030.24 1030.97 1031.26 1031.71 1031.61 1031.82 1032.03 1031.63 1031.62 1031.65 1031.93 1032.46 1033.49 1033.65 1034.19 1033.29 1031.91 1030.10 1029.26 1030.14 1030.29 1030.89 1031.24 1031.37 1031.03 1029.71
1024.42 1024.81 1025.26 1025.77 1026.20 1026.66 1027.09 1027.41 1027.55 1027.63 1027.85 1027.14 1027.88 1028.16 1027.94 1028.90 1028.56 1028.61 1027.99 1028.59 1029.27 1029.93 1030.47 1030.86 1031.28 1031.77 1031.83 1031.76 1031.60 1031.75 1031.89 1032.10 1032.49 1033.02 1033.35 1034.00 1033.52 1032.45 1029.55 1028.89 1029.04 1029.57 1029.75 1030.61 1030.27 1029.87 1029.21
1023.73 1024.26 1024.65 1025.11 1025.65 1026.07 1026.57 1027.09 1027.44 1027.56 1027.67 1027.26 1027.49 1027.65 1028.08 1028.17 1028.33 1028.09 1028.30 1029.00 1029.49 1030.01 1030.55 1031.16 1031.75 1032.05 1032.25 1032.34 1032.08 1032.19 1032.07 1032.17 1032.36 1032.71 1033.38 1033.47 1033.39 1032.93 1030.42 1028.75 1028.01 1028.28 1028.83 1029.59 1029.41 1028.14 1028.00
1022.92 1023.54 1024.17 1024.68 1025.16 1025.57 1026.04 1026.51 1027.06 1027.32 1027.53 1027.33 1027.65 1027.65 1027.73 1027.73 1027.72 1028.07 1028.56 1029.31 1030.02 1030.55 1030.98 1031.40 1031.84 1032.26 1032.59 1032.21 1031.40 1030.59 1030.64 1031.45 1031.71 1032.40 1033.03 1033.47 1033.62 1032.53 1031.19 1029.25 1026.81 1027.19 1028.11 1028.66 1028.53 1026.37 1026.99
1022.26 1022.85 1023.48 1024.01 1024.72 1025.22 1025.70 1026.21 1026.64 1027.03 1027.36 1027.20 1027.63 1027.79 1027.81 1028.02 1027.43 1027.93 1028.84 1029.76 1030.02 1030.46 1031.17 1031.79 1032.71 1032.83 1032.68 1031.95 1031.14 1030.57 1029.70 1030.44 1030.79 1032.01 1033.19 1033.44 1033.48 1033.30 1031.07 1029.91 1027.12 1026.56 1027.32 1027.74 1028.57 1026.72 1026.17
1021.13 1021.71 1022.53 1023.12 1023.81 1024.51 1025.08 1025.58 1026.16 1026.75 1027.16 1026.90 1027.74 1028.42 1028.04 1028.34 1028.33 1028.70 1028.99 1029.47 1030.02 1030.37 1030.79 1031.88 1032.66 1032.89 1032.80 1031.71 1030.87 1030.33 1029.98 1030.93 1031.07 1031.25 1031.86 1032.48 1032.52 1031.87 1030.27 1029.19 1026.57 1026.34 1026.93 1027.30 1027.63 1025.68 1025.16
1019.98 1020.58 1021.36 1021.90 1022.64 1023.52 1024.33 1024.98 1025.56 1026.27 1026.78 1026.79 1027.68 1028.29 1028.31 1028.50 1029.09 1029.41 1029.54 1029.87 1030.54 1030.56 1030.59 1032.26 1032.79 1032.89 1032.52 1031.85 1031.15 1030.52 1030.90 1031.22 1031.56 1030.30 1030.66 1031.13 1031.02 1029.98 1029.42 1028.38 1026.27 1026.31 1026.19 1027.17 1026.77 1026.35 1026.15
1019.09 1019.61 1020.19 1020.95 1021.74 1022.47 1023.20 1024.07 1024.90 1025.81 1026.36 1026.50 1027.33 1027.85 1028.16 1028.91 1030.19 1030.40 1030.57 1030.80 1030.79 1030.75 1030.78 1031.91 1031.78 1031.69 1031.27 1031.44 1031.65 1031.27 1030.96 1031.57 1031.29 1030.39 1031.17 1031.17 1030.44 1029.76 1028.29 1025.70 1025.35 1025.73 1026.12 1026.49 1026.85 1026.65 1026.36
Wind_Speed
10 11 11 12 12 13 13 13 13 12 12 12 11 10 10 8 7 5 6 7 7 7 7 10 9 4 6 10 10 20 21 16 11 12 17 9 14 6 5 3 2 4 5 5 6 7 9
10 10 11 11 12 13 13 13 13 12 12 12 11 10 9 9 7 5 5 6 6 5 5 7 8 12 4 9 11 19 15 13 12 11 14 16 7 7 4 3 5 6 9 10 5 6 8
9 10 10 11 12 12 12 13 13 12 12 12 12 11 9 9 8 4 4 5 6 4 5 6 5 2 18 9 11 19 14 10 8 10 9 10 9 5 4 2 4 6 9 7 3 5 9
9 9 9 10 11 11 12 12 13 12 12 12 12 11 9 11 6 2 3 3 6 7 4 3 5 3 7 2 9 21 13 7 7 4 4 6 6 2 5 2 4 6 3 10 3 7 3
8 8 9 10 11 11 12 12 12 12 12 11 13 11 11 8 5 2 2 2 2 5 5 3 3 5 5 2 15 21 11 9 4 3 5 4 2 3 7 9 7 3 12 16 12 6 6
6 7 8 9 10 11 11 12 12 13 12 11 12 9 13 10 7 7 4 0 4 4 4 2 7 3 6 10 11 20 17 9 4 6 4 4 1 5 10 11 6 14 16 14 18 7 11
6 6 7 9 9 10 11 11 12 13 11 11 11 10 9 9 8 7 4 5 6 3 16 10 7 4 6 13 3 19 20 7 5 4 6 5 7 9 11 8 8 13 18 22 20 15 15
5 5 6 7 8 9 10 11 12 13 12 11 11 11 3 5 9 5 4 3 3 4 8 6 4 5 3 9 6 20 18 7 8 13 9 6 8 8 8 6 11 18 23 15 11 8 21
4 4 5 6 7 8 9 11 12 13 13 12 12 12 2 3 3 2 4 4 2 4 1 4 4 4 5 8 7 16 18 8 6 10 9 8 6 8 9 12 16 20 12 15 21 27 11
4 3 4 5 6 7 9 10 11 12 12 11 12 9 8 3 2 1 4 2 2 4 4 5 4 5 5 2 4 10 13 5 5 7 7 3 5 10 11 11 17 15 16 23 23 14 5
4 3 2 3 5 7 9 10 11 11 11 10 11 11 7 9 4 0 4 1 3 4 1 4 3 3 3 7 11 11 8 4 7 7 6 7 9 12 11 11 15 10 26 24 18 8 9
5 4 2 2 4 6 8 10 11 12 11 8 7 13 4 0 3 3 0 1 4 3 4 2 2 7 5 8 5 11 9 10 1 4 2 3 2 4 6 15 10 19 22 15 4 5 6
6 5 2 0 3 5 7 9 11 12 12 7 3 11 5 3 4 1 2 4 2 4 3 7 5 9 8 8 4 10 8 13 10 12 11 13 2 1 7 12 1 18 17 6 3 4 9
8 6 4 2 2 5 7 9 10 12 11 6 4 3 5 4 2 2 3 5 6 2 5 3 5 9 4 9 4 9 7 7 13 9 7 9 2 7 10 5 7 10 8 5 9 10 16
10 8 6 4 3 4 7 9 10 11 10 4 2 1 1 4 0 2 5 4 4 4 3 9 8 5 2 3 6 8 6 6 5 9 7 9 3 2 5 5 6 7 7 5 8 10 10
12 10 8 6 4 3 6 8 10 11 10 3 2 2 2 3 3 4 1 4 2 2 2 2 5 4 6 10 9 9 9 3 3 3 3 5 9 2 2 1 3 3 5 3 3 8 10
12 12 10 8 6 3 5 8 10 11 10 2 3 3 4 2 3 2 4 4 3 3 2 3 3 5 3 5 5 4 4 3 2 3 1 1 2 2 8 1 4 2 2 4 3 5 6
13 13 11 9 7 4 4 7 10 11 9 4 2 3 2 2 1 3 3 2 2 3 2 1 2 2 3 4 5 4 4 1 4 1 5 3 4 8 5 5 2 2 4 2 4 2 10
15 14 12 11 8 5 3 5 8 10 8 3 3 3 2 3 2 3 3 3 0 2 1 1 1 2 0 3 5 4 3 2 2 3 4 2 2 9 3 5 5 5 4 4 5 9 13
16 15 14 13 9 7 4 3 6 8 5 3 2 1 3 3 3 4 4 3 3 1 2 2 2 2 3 4 5 5 5 2 1 4 1 2 4 8 9 14 14 15 13 8 6 7 13
18 17 15 13 11 9 7 3 3 6 5 4 3 2 2 2 3 4 2 3 4 3 2 4 3 8 3 4 5 4 2 7 5 1 3 3 6 11 18 22 17 17 16 10 13 17 11
19 18 16 14 12 12 9 5 2 3 4 2 1 3 0 3 2 3 3 6 5 4 6 4 5 1 7 5 3 8 5 4 3 4 4 3 6 13 20 7 6 11 14 13 14 15 20
21 19 18 16 13 12 11 8 5 1 2 1 2 2 4 3 3 2 2 3 5 6 6 2 5 3 8 9 7 9 9 11 10 7 4 3 6 8 7 7 15 6 7 10 9 14 16
21 20 19 18 16 15 13 10 7 4 6 2 1 3 4 2 5 5 3 3 6 6 1 1 5 3 3 4 9 5 5 6 7 8 8 6 8 5 9 15 5 3 4 7 15 20 18
23 21 20 19 17 17 15 13 10 7 7 2 2 2 3 2 4 3 6 3 3 2 4 4 5 3 3 5 4 5 5 4 4 3 6 8 5 6 5 8 13 4 3 7 10 23 6
23 22 22 20 19 18 16 14 12 11 10 3 2 1 2 4 4 4 7 6 3 4 3 3 2 0 1 2 2 3 4 3 2 5 2 4 6 4 4 6 6 3 2 10 2 8 5
26 25 24 23 21 20 18 17 15 13 13 3 3 1 1 3 4 5 4 5 5 2 1 3 4 4 2 2 3 3 2 2 4 4 4 4 4 7 8 7 9 5 7 10 10 12 22
28 27 26 26 25 23 21 19 17 16 16 5 4 2 1 1 3 4 4 5 4 4 4 6 4 3 3 4 2 0 3 1 4 4 4 4 4 4 3 5 7 1 8 5 11 17 20
28 28 28 27 26 26 24 22 20 19 18 8 3 4 2 3 3 2 3 2 2 3 3 5 2 3 3 3 3 1 4 3 2 4 2 4 5 2 7 5 4 8 6 11 11 17 20
Wind_Direction
81 71 61 56 51 47 43 40 37 35 36 35 34 33 30 23 15 16 16 10 8 19 23 26 24 328 275 56 29 347 348 351 353 6 25 25 35 19 41 39 308 353 337 291 289 291 289
80 72 60 55 49 44 40 38 35 33 32 29 26 25 20 14 8 359 4 3 8 20 26 26 7 310 51 69 327 354 352 1 10 5 32 34 20 356 48 25 341 332 303 290 284 304 305
79 72 61 55 49 42 38 34 30 28 27 24 19 16 13 7 354 347 360 4 8 20 52 29 0 5 60 64 8 2 359 13 14 13 29 26 358 28 322 257 340 302 299 271 166 275 311
80 70 58 54 49 42 35 30 26 23 23 19 14 10 5 351 350 358 2 26 44 53 28 40 313 56 73 62 351 7 358 18 25 13 11 6 345 353 2 309 250 295 250 332 94 1 34
82 68 56 52 45 39 33 28 22 19 19 16 13 12 11 13 33 2 10 103 341 22 10 256 277 298 60 205 1 7 9 355 331 13 20 357 328 350 359 321 256 195 322 319 324 270 307
88 69 57 49 42 34 29 25 19 17 16 15 16 22 22 31 42 40 32 284 13 207 254 223 57 129 67 345 335 1 356 339 349 294 217 347 338 349 19 9 360 319 322 304 303 292 320
93 73 58 48 40 33 28 21 18 16 15 14 16 21 35 36 36 17 286 256 226 165 39 58 45 56 341 341 265 12 350 315 323 57 11 29 22 11 355 0 332 311 301 303 302 317 308
98 77 59 46 36 30 26 21 17 14 12 10 10 0 342 26 31 356 297 343 37 45 95 61 65 62 9 327 333 9 359 30 13 22 343 221 47 356 330 316 316 315 317 314 310 316 318
117 88 62 44 33 25 21 19 17 14 9 6 8 11 62 39 333 39 56 72 22 321 292 75 46 10 352 333 31 2 8 336 7 9 7 30 7 330 325 331 339 328 312 320 308 316 291
144 111 68 43 28 20 15 15 14 14 10 3 6 9 9 285 255 73 67 105 331 324 239 44 21 40 339 344 70 25 10 354 3 339 357 31 348 342 331 350 345 314 348 313 307 319 305
172 145 95 46 23 14 8 6 8 8 7 6 6 1 16 9 96 56 82 236 309 245 2 49 34 333 19 47 319 34 10 338 18 333 332 34 348 348 338 351 332 290 313 304 303 278 313
195 182 153 46 16 10 3 2 2 3 3 5 25 16 317 276 73 52 214 243 243 234 346 46 356 348 351 35 30 342 18 357 229 313 197 325 23 326 349 315 308 320 312 295 255 248 251
207 208 200 297 3 0 358 359 0 2 4 9 69 34 24 330 37 70 216 220 248 27 119 358 342 348 336 347 10 8 35 41 31 347 9 313 122 20 336 328 350 357 346 352 320 231 308
219 219 219 241 328 350 352 353 359 1 7 14 52 317 49 43 53 241 238 230 45 65 15 16 318 315 352 358 53 357 352 41 45 2 300 354 337 19 8 46 307 337 360 13 315 327 309
218 220 223 234 280 330 344 351 355 356 3 1 251 145 91 32 309 263 256 45 25 28 334 339 308 301 123 86 328 339 50 26 42 21 10 341 285 72 41 14 349 349 17 342 277 268 267
213 223 223 232 254 308 335 346 351 351 353 336 283 252 82 358 204 239 353 85 65 32 337 320 336 7 320 356 346 10 10 89 62 64 356 52 287 118 42 291 120 21 340 347 311 316 308
214 222 226 230 239 264 324 340 348 349 353 309 258 258 70 170 235 237 67 74 117 102 2 359 331 303 313 315 328 327 325 146 55 40 55 343 208 286 267 62 343 308 5 349 257 260 306
207 216 226 228 236 245 309 337 346 349 349 262 300 280 70 189 255 41 76 89 95 141 130 106 303 280 282 333 289 290 299 339 122 352 335 51 304 286 328 82 218 283 325 325 310 301 283
202 211 220 229 221 225 273 330 343 350 357 315 327 345 135 257 10 95 128 104 87 143 168 167 262 244 243 288 296 252 293 81 188 309 347 140 186 303 173 154 185 228 189 242 254 268 262
202 208 212 224 217 213 228 300 336 347 344 288 343 321 106 70 57 95 148 144 152 138 176 205 278 227 274 262 214 305 299 57 168 291 347 214 270 243 266 285 310 295 287 257 250 264 277
203 205 207 208 212 215 221 233 322 339 327 282 8 80 32 37 72 102 118 167 165 196 216 209 217 231 199 280 282 240 295 302 141 86 198 278 268 275 277 284 288 283 282 270 225 243 264
203 204 203 205 200 219 215 213 261 330 304 268 161 146 109 100 141 160 169 211 199 155 165 201 228 270 209 231 242 300 323 287 292 151 283 127 283 318 289 249 214 273 270 254 250 259 261
204 202 202 204 200 207 206 204 211 194 252 45 98 98 117 149 163 223 239 172 204 166 188 257 226 259 242 268 297 306 291 280 268 270 277 273 319 321 280 307 310 253 226 212 243 264 278
203 203 200 200 199 195 196 200 209 209 214 312 152 133 98 162 212 218 176 162 197 206 213 153 210 223 53 311 286 251 253 254 250 245 237 269 289 271 285 306 282 112 218 238 250 273 274
198 199 201 201 199 194 192 193 201 195 188 229 145 203 131 213 209 199 184 188 147 172 216 241 214 26 331 305 292 284 181 203 190 205 216 228 280 293 292 304 278 159 188 318 315 304 297
199 199 199 198 200 195 191 193 195 184 174 172 167 292 132 127 218 103 161 180 224 204 180 175 123 107 246 276 277 299 313 349 196 181 198 202 245 254 329 297 293 72 268 339 6 279 310
199 198 198 196 195 194 190 187 191 194 181 177 117 275 171 156 149 165 171 177 166 151 137 139 167 166 234 234 253 270 293 14 281 264 190 199 213 236 260 269 277 68 326 298 313 321 332
202 200 199 195 192 191 189 186 185 192 179 190 107 149 284 128 138 198 164 151 146 208 199 131 160 181 179 217 246 118 252 75 274 254 235 228 218 216 215 258 282 42 297 347 321 306 314
206 202 198 195 193 189 185 182 180 183 179 186 130 134 85 83 65 33 66 55 20 32 126 173 343 154 171 189 216 260 224 181 286 275 186 251 225 266 224 262 132 296 283 306 305 307 315